TimeCDT,TemperatureF,Dew PointF,Humidity,Sea Level PressureIn,VisibilityMPH,Wind Direction,Wind SpeedMPH,Gust SpeedMPH,PrecipitationIn,Events,Conditions,WindDirDegrees,DateUTC
12:53 AM,73.0,64.9,76,29.94,10.0,Variable,3.5,-,N/A,,Overcast,0,2012-10-22 05:53:00
1:53 AM,73.0,64.0,73,29.94,10.0,Calm,Calm,-,N/A,,Overcast,0,2012-10-22 06:53:00
2:53 AM,72.0,63.0,73,29.95,10.0,Calm,Calm,-,N/A,,Overcast,0,2012-10-22 07:53:00
3:53 AM,69.1,63.0,81,29.94,10.0,SSE,3.5,-,N/A,,Scattered Clouds,160,2012-10-22 08:53:00
4:53 AM,70.0,63.0,78,29.94,10.0,Variable,4.6,-,N/A,,Partly Cloudy,0,2012-10-22 09:53:00
5:53 AM,69.1,64.0,84,29.96,10.0,SSE,4.6,-,N/A,,Clear,150,2012-10-22 10:53:00
6:53 AM,70.0,64.9,84,29.96,10.0,Variable,5.8,-,N/A,,Mostly Cloudy,0,2012-10-22 11:53:00
7:53 AM,70.0,64.9,84,29.98,10.0,Variable,4.6,-,N/A,,Mostly Cloudy,0,2012-10-22 12:53:00
8:53 AM,73.0,64.9,76,30.00,10.0,South,6.9,-,N/A,,Clear,180,2012-10-22 13:53:00
9:53 AM,75.9,64.9,69,30.01,10.0,SSW,10.4,-,N/A,,Partly Cloudy,200,2012-10-22 14:53:00
10:53 AM,78.1,64.0,62,30.01,10.0,SSW,11.5,23.0,N/A,,Partly Cloudy,210,2012-10-22 15:53:00
11:53 AM,80.1,64.9,60,30.00,10.0,South,10.4,-,N/A,,Clear,190,2012-10-22 16:53:00
12:53 PM,79.0,64.0,60,29.99,10.0,SSW,11.5,21.9,N/A,,Clear,200,2012-10-22 17:53:00
1:53 PM,80.1,64.9,60,29.96,10.0,SSW,12.7,25.3,N/A,,Clear,210,2012-10-22 18:53:00
2:53 PM,81.0,64.9,58,29.96,10.0,SSW,8.1,17.3,N/A,,Clear,200,2012-10-22 19:53:00
3:53 PM,81.0,64.0,56,29.96,10.0,SSW,8.1,-,N/A,,Partly Cloudy,200,2012-10-22 20:53:00
4:53 PM,81.0,64.0,56,29.95,10.0,Variable,5.8,-,N/A,,Mostly Cloudy,0,2012-10-22 21:53:00
5:53 PM,78.1,64.0,62,29.96,10.0,Calm,Calm,-,N/A,,Scattered Clouds,0,2012-10-22 22:53:00
6:53 PM,73.0,64.0,73,29.96,10.0,Calm,Calm,-,N/A,,Clear,0,2012-10-22 23:53:00
7:53 PM,71.1,63.0,75,29.97,10.0,Calm,Calm,-,N/A,,Clear,0,2012-10-23 00:53:00
8:53 PM,73.0,64.0,73,29.96,10.0,Calm,Calm,-,N/A,,Clear,0,2012-10-23 01:53:00
9:53 PM,71.1,64.0,78,29.97,10.0,Calm,Calm,-,N/A,,Clear,0,2012-10-23 02:53:00
10:53 PM,71.1,61.0,70,29.97,10.0,Calm,Calm,-,N/A,,Clear,0,2012-10-23 03:53:00